Location: Whitehorse
(60.7170°N, 135.0500°W)
Time: 04:45:25
(UTC-07:00)

SL-16 R/B - Visible Passes

Search period start: 30 September 2016 00:00
Search period end: 10 October 2016 00:00
Orbit: 840 x 850 km, 71.0° (Epoch: 30 September)

Date Brightness Start Highest point End Pass type
(mag) Time Alt. Az. Time Alt. Az. Time Alt. Az.
30 Sep 3.8 01:40:52 10° NW 01:45:58 32° NNE 01:51:02 10° ENE visible
30 Sep 2.8 03:25:32 10° NW 03:31:11 57° NE 03:36:47 10° ESE visible
30 Sep 2.3 05:09:51 10° NW 05:15:22 52° WSW 05:20:52 10° SSE visible
30 Sep 3.7 06:55:27 10° WNW 06:58:17 14° W 07:01:08 10° SW visible
30 Sep 2.5 20:11:32 10° S 20:16:58 48° ESE 20:22:26 10° NE visible
30 Sep 2.8 21:55:26 10° WSW 22:01:05 60° NW 22:06:46 10° NE visible
30 Sep 3.8 23:41:08 10° WNW 23:46:15 32° NNW 23:51:22 10° NE visible
01 Oct 3.8 01:26:46 10° NW 01:31:52 32° NNE 01:36:57 10° ENE visible
01 Oct 2.8 03:11:28 10° NW 03:17:06 56° NE 03:22:43 10° ESE visible
01 Oct 2.2 04:55:47 10° NW 05:01:19 53° WSW 05:06:49 10° SSE visible
01 Oct 3.7 06:41:18 10° WNW 06:44:15 15° W 06:44:36 14° W visible
01 Oct 2.7 21:41:21 10° WSW 21:47:01 61° NW 21:52:42 10° NE visible
01 Oct 3.8 23:27:01 10° WNW 23:32:09 33° NNW 23:37:18 10° NE visible
02 Oct 3.8 01:12:42 10° NW 01:17:47 31° NNE 01:22:28 12° ENE visible
02 Oct 2.8 02:57:24 10° NW 03:03:02 55° NE 03:04:12 47° ENE visible
02 Oct 2.6 04:41:42 10° NW 04:45:57 44° WNW 04:45:57 44° WNW visible
02 Oct 4.1 06:27:10 10° WNW 06:27:41 11° WNW 06:27:41 11° WNW visible
02 Oct 2.7 21:27:16 10° WSW 21:32:56 62° NW 21:38:38 10° NE visible
02 Oct 3.8 23:12:56 10° W 23:18:04 33° NNW 23:23:13 10° NE visible
03 Oct 3.8 00:58:37 10° NW 01:03:42 31° N 01:07:09 17° ENE visible
03 Oct 2.8 02:43:20 10° NW 02:48:57 54° NE 02:48:57 54° NE visible
03 Oct 3.2 04:27:38 10° NW 04:30:45 32° WNW 04:30:45 32° WNW visible
03 Oct 2.7 21:13:12 10° WSW 21:18:52 63° NW 21:24:33 10° NE visible
03 Oct 3.8 22:58:51 10° W 23:03:59 33° NNW 23:09:08 10° NE visible
04 Oct 3.8 00:44:32 10° NW 00:49:36 31° N 00:52:25 21° NE visible
04 Oct 2.9 02:29:16 10° NW 02:34:14 51° NNE 02:34:14 51° NNE visible
04 Oct 3.6 04:13:34 10° NW 04:16:03 26° NW 04:16:03 26° NW visible
04 Oct 2.7 20:59:07 10° WSW 21:04:47 64° NW 21:10:30 10° NE visible
04 Oct 3.8 22:44:45 10° W 22:49:54 33° NNW 22:55:04 10° NE visible
05 Oct 3.8 00:30:27 10° NW 00:35:31 31° N 00:37:56 23° NE visible
05 Oct 3.1 02:15:12 10° NW 02:19:45 46° N 02:19:45 46° N visible
05 Oct 3.8 03:59:30 10° NW 04:01:35 23° NW 04:01:35 23° NW visible
05 Oct 2.7 20:45:03 10° SW 20:50:44 65° NW 20:56:26 10° NE visible
05 Oct 3.7 22:30:39 10° W 22:35:49 33° NNW 22:40:59 10° NE visible
06 Oct 3.8 00:16:23 10° NW 00:21:26 31° N 00:23:35 24° NE visible
06 Oct 3.2 02:01:08 10° NW 02:05:25 43° N 02:05:25 43° N visible
06 Oct 4.0 03:45:26 10° NW 03:47:16 21° NW 03:47:16 21° NW visible
06 Oct 2.6 20:30:58 10° SW 20:36:39 66° NW 20:42:22 10° NE visible
06 Oct 3.7 22:16:33 10° W 22:21:44 34° NNW 22:26:54 10° NE visible
07 Oct 3.8 00:02:17 10° NW 00:07:20 31° N 00:09:21 25° NE visible
07 Oct 3.3 01:47:04 10° NW 01:51:12 41° N 01:51:12 41° N visible
07 Oct 4.1 03:31:22 10° NW 03:33:02 20° NW 03:33:02 20° NW visible
07 Oct 2.6 20:16:53 10° SW 20:22:35 67° NW 20:28:18 10° NE visible
07 Oct 3.7 22:02:28 10° W 22:07:39 34° NNW 22:12:49 10° NE visible
07 Oct 3.8 23:48:13 10° NW 23:53:15 31° N 23:55:11 25° NE visible
08 Oct 3.4 01:33:00 10° NW 01:37:02 40° N 01:37:02 40° N visible
08 Oct 4.1 03:17:18 10° NW 03:18:53 19° NW 03:18:53 19° NW visible
08 Oct 2.6 20:02:49 10° SW 20:08:31 69° NW 20:14:14 10° NE visible
08 Oct 3.7 21:48:22 10° W 21:53:33 34° NNW 21:58:45 10° NE visible
08 Oct 3.7 23:34:07 10° NW 23:39:09 31° N 23:41:04 25° NE visible
09 Oct 3.4 01:18:56 10° NW 01:22:55 39° N 01:22:55 39° N visible
09 Oct 4.2 03:03:15 10° NW 03:04:46 19° NW 03:04:46 19° NW visible
09 Oct 2.6 19:48:45 10° SW 19:54:27 70° NW 20:00:10 10° NE visible
09 Oct 3.6 21:34:16 10° W 21:39:28 34° NNW 21:44:41 10° NE visible
09 Oct 3.7 23:20:02 10° NW 23:25:04 30° N 23:26:59 25° NE visible
